sat.trackr.live / text

‹ back to catalog

QIANFAN-96

NORAD 66038 · 2025-233F

PAYLOAD ACTIVE UNKNOWN

§ Identity

Operator
Country
PRC
Launch date
2025-10-17
Launch site
TAISC
Launch vehicle
Mass (kg)
RCS (m²)

External: N2YO · Heavens-Above · Gunter

§ Orbital elements

Epoch: 2026-09-20T09:56:36.942144Z

Period
106.59 min
Inclination
89.0056°
Eccentricity
0.0001717
Mean motion
13.51029139 rev/d
Perigee alt
1,067.2 km
Apogee alt
1,069.8 km
Semi-major
7,446.6 km
B*
9.9087e-5
RAAN
33.5789°
Arg perigee
92.0416°
Mean anomaly
268.0932°
Rev number
4,603

§ Raw data

QIANFAN-961 66038U 25233F   26263.41431646  .00000076  00000+0  99087-4 0  99952 66038  89.0056  33.5789 0001717  92.0416 268.0932 13.51029139 46033

JSON: /api/v1/satellites/66038 · /tle

For live sub-satellite position, see the globe view (requires WebGL).

§ Visibility from observer

Set your observer location to see the next 7 days of passes ≥ 10°. The values pass through the URL so the page stays shareable.

No JS? Fill the form by hand. The geolocation button needs JavaScript.